sat.trackr.live / text

‹ back to catalog

YAOGAN-47

NORAD 66988 · 2025-289A

PAYLOAD ACTIVE UNKNOWN

§ Identity

Operator
Country
PRC
Launch date
2025-12-09
Launch site
JSC
Launch vehicle
Mass (kg)
RCS (m²)

External: N2YO · Heavens-Above · Gunter

§ Orbital elements

Epoch: 2026-05-25T03:43:10.112160Z

Period
94.51 min
Inclination
97.5027°
Eccentricity
0.0003500
Mean motion
15.23689916 rev/d
Perigee alt
492.3 km
Apogee alt
497.1 km
Semi-major
6,872.9 km
B*
2.1450e-4
RAAN
215.4753°
Arg perigee
118.2553°
Mean anomaly
241.9037°
Rev number
2,542

§ Raw data

YAOGAN-471 66988U 25289A   26145.15497815  .00005076  00000+0  21450-3 0  99932 66988  97.5027 215.4753 0003500 118.2553 241.9037 15.23689916 25428

JSON: /api/v1/satellites/66988 · /tle

For live sub-satellite position, see the globe view (requires WebGL).

§ Visibility from observer

Set your observer location to see the next 7 days of passes ≥ 10°. The values pass through the URL so the page stays shareable.

No JS? Fill the form by hand. The geolocation button needs JavaScript.